TimeCST,TemperatureF,Dew PointF,Humidity,Sea Level PressureIn,VisibilityMPH,Wind Direction,Wind SpeedMPH,Gust SpeedMPH,PrecipitationIn,Events,Conditions,WindDirDegrees,DateUTC
12:52 AM,39.0,35.1,86,30.19,6.0,East,3.5,-,N/A,,Overcast,90,2012-11-05 06:52:00
1:52 AM,39.0,35.1,86,30.19,7.0,NE,3.5,-,0.00,,Overcast,50,2012-11-05 07:52:00
2:52 AM,39.0,35.1,86,30.18,6.0,East,4.6,-,N/A,,Overcast,90,2012-11-05 08:52:00
3:52 AM,39.0,34.0,82,30.16,8.0,East,5.8,-,0.00,,Overcast,80,2012-11-05 09:52:00
4:52 AM,39.0,33.1,79,30.15,9.0,East,6.9,-,N/A,,Overcast,90,2012-11-05 10:52:00
5:52 AM,39.0,34.0,82,30.15,8.0,ESE,4.6,-,N/A,,Overcast,110,2012-11-05 11:52:00
6:52 AM,39.0,35.1,86,30.15,5.0,East,8.1,-,0.00,Rain,Light Rain,90,2012-11-05 12:52:00
7:52 AM,39.0,35.1,86,30.16,5.0,East,8.1,-,0.00,,Overcast,90,2012-11-05 13:52:00
8:52 AM,39.9,35.1,83,30.17,8.0,ESE,6.9,-,0.00,,Overcast,120,2012-11-05 14:52:00
9:52 AM,41.0,35.1,79,30.17,8.0,East,5.8,-,N/A,,Overcast,100,2012-11-05 15:52:00
10:52 AM,41.0,35.1,79,30.18,9.0,ESE,11.5,-,0.00,Rain,Light Rain,110,2012-11-05 16:52:00
11:52 AM,42.1,36.0,79,30.16,10.0,East,9.2,-,0.00,,Overcast,90,2012-11-05 17:52:00
12:52 PM,42.1,35.1,76,30.14,9.0,East,9.2,-,0.00,Rain,Light Rain,90,2012-11-05 18:52:00
1:52 PM,42.1,36.0,79,30.13,9.0,ENE,6.9,-,0.01,Rain,Light Rain,70,2012-11-05 19:52:00
2:52 PM,43.0,36.0,76,30.13,10.0,ENE,4.6,-,0.00,,Overcast,70,2012-11-05 20:52:00
3:52 PM,43.0,36.0,76,30.14,10.0,East,4.6,-,N/A,,Overcast,80,2012-11-05 21:52:00
4:52 PM,42.1,36.0,79,30.14,10.0,Calm,Calm,-,N/A,,Overcast,0,2012-11-05 22:52:00
5:52 PM,42.1,36.0,79,30.15,10.0,ENE,3.5,-,N/A,,Overcast,60,2012-11-05 23:52:00
6:52 PM,42.1,36.0,79,30.14,10.0,ENE,3.5,-,N/A,,Overcast,70,2012-11-06 00:52:00
7:52 PM,42.1,36.0,79,30.14,10.0,Calm,Calm,-,N/A,,Overcast,0,2012-11-06 01:52:00
8:52 PM,41.0,36.0,82,30.14,10.0,ENE,3.5,-,N/A,,Overcast,60,2012-11-06 02:52:00
9:52 PM,41.0,36.0,82,30.13,9.0,Calm,Calm,-,N/A,,Overcast,0,2012-11-06 03:52:00
10:52 PM,41.0,36.0,82,30.12,8.0,Calm,Calm,-,N/A,,Overcast,0,2012-11-06 04:52:00
11:52 PM,39.9,37.0,89,30.12,7.0,Calm,Calm,-,N/A,,Overcast,0,2012-11-06 05:52:00